Radiation Dose at Monitoring Post of Fukushima Daini Nuclear Power Station
Date,Time,MP-1(microSv/h),MP-2(microSv/h),MP-3(microSv/h),MP-4(microSv/h),MP-5(microSv/h),MP-6(microSv/h),MP-7(microSv/h),Wind Direction,Wind Velocity(m/s),Rain
2020/12/01,00:00,0.178,0.160,0.262,0.249,0.241,0.141,0.086,northwest,5.4,No
2020/12/01,00:10,0.179,0.161,0.263,0.249,0.241,0.141,0.085,north-northwest,4.9,No
2020/12/01,00:20,0.178,0.159,0.264,0.248,0.242,0.141,0.085,northwest,3.9,No
2020/12/01,00:30,0.179,0.160,0.263,0.250,0.241,0.142,0.086,north-northwest,4.6,No
2020/12/01,00:40,0.178,0.161,0.263,0.249,0.241,0.142,0.086,northwest,5.6,No
2020/12/01,00:50,0.178,0.160,0.264,0.249,0.243,0.142,0.086,northwest,5.8,No
2020/12/01,01:00,0.179,0.161,0.263,0.248,0.241,0.141,0.086,northwest,5.6,No
2020/12/01,01:10,0.178,0.160,0.263,0.250,0.242,0.141,0.086,northwest,5.6,No
2020/12/01,01:20,0.179,0.161,0.263,0.248,0.241,0.142,0.086,northwest,5.7,No
2020/12/01,01:30,0.179,0.161,0.263,0.250,0.243,0.142,0.086,northwest,6.5,No
2020/12/01,01:40,0.179,0.160,0.264,0.249,0.241,0.142,0.086,northwest,7.8,No
2020/12/01,01:50,0.179,0.160,0.263,0.249,0.241,0.142,0.086,northwest,7.3,No
2020/12/01,02:00,0.178,0.160,0.263,0.249,0.241,0.141,0.086,northwest,7.6,No
2020/12/01,02:10,0.177,0.160,0.263,0.248,0.243,0.141,0.086,northwest,7.1,No
2020/12/01,02:20,0.178,0.160,0.264,0.247,0.241,0.142,0.086,northwest,5.9,No
2020/12/01,02:30,0.179,0.160,0.264,0.248,0.242,0.142,0.085,northwest,6.0,No
2020/12/01,02:40,0.180,0.161,0.262,0.248,0.242,0.142,0.086,northwest,6.8,No
2020/12/01,02:50,0.179,0.160,0.261,0.248,0.242,0.142,0.086,northwest,5.9,No
2020/12/01,03:00,0.179,0.160,0.263,0.247,0.240,0.141,0.086,northwest,4.7,No
2020/12/01,03:10,0.178,0.159,0.264,0.249,0.241,0.142,0.086,northwest,5.3,No
2020/12/01,03:20,0.178,0.160,0.262,0.247,0.241,0.141,0.086,north-northwest,4.7,No
2020/12/01,03:30,0.179,0.160,0.262,0.248,0.241,0.142,0.085,north-northwest,4.2,No
2020/12/01,03:40,0.179,0.160,0.262,0.247,0.242,0.141,0.086,north-northwest,4.3,No
2020/12/01,03:50,0.178,0.161,0.262,0.248,0.241,0.141,0.086,north-northwest,4.7,No
2020/12/01,04:00,0.179,0.160,0.261,0.248,0.241,0.141,0.086,north-northwest,3.7,No
2020/12/01,04:10,0.179,0.161,0.262,0.247,0.242,0.141,0.085,north-northwest,4.2,No
2020/12/01,04:20,0.179,0.160,0.263,0.248,0.242,0.141,0.087,north-northwest,5.1,No
2020/12/01,04:30,0.179,0.160,0.263,0.249,0.242,0.142,0.086,north-northwest,2.9,No
2020/12/01,04:40,0.177,0.160,0.263,0.248,0.241,0.142,0.085,north-northwest,3.3,No
2020/12/01,04:50,0.178,0.160,0.262,0.247,0.240,0.141,0.086,north-northwest,4.8,No
2020/12/01,05:00,0.178,0.161,0.262,0.248,0.242,0.141,0.087,northwest,5.2,No
2020/12/01,05:10,0.178,0.161,0.262,0.249,0.242,0.142,0.086,north-northwest,4.2,No
2020/12/01,05:20,0.178,0.160,0.263,0.249,0.241,0.142,0.086,north,4.0,No
2020/12/01,05:30,0.179,0.160,0.262,0.248,0.243,0.142,0.086,north-northwest,3.4,No
2020/12/01,05:40,0.179,0.161,0.263,0.249,0.241,0.141,0.086,north-northwest,3.4,No
2020/12/01,05:50,0.179,0.160,0.263,0.248,0.241,0.142,0.085,north-northwest,2.4,No
2020/12/01,06:00,0.180,0.161,0.262,0.249,0.243,0.141,0.086,north-northwest,2.4,No
2020/12/01,06:10,0.178,0.160,0.263,0.248,0.240,0.141,0.086,north,2.7,No
2020/12/01,06:20,0.179,0.160,0.262,0.249,0.241,0.143,0.086,north-northwest,3.1,No
2020/12/01,06:30,0.178,0.160,0.263,0.249,0.242,0.141,0.087,northwest,2.0,No
2020/12/01,06:40,0.179,0.159,0.262,0.249,0.241,0.142,0.085,west-northwest,1.6,No
2020/12/01,06:50,0.178,0.160,0.263,0.248,0.241,0.141,0.087,west-northwest,1.8,No
2020/12/01,07:00,0.178,0.161,0.263,0.248,0.240,0.141,0.086,west,3.1,No
2020/12/01,07:10,0.178,0.160,0.262,0.248,0.242,0.141,0.085,west-northwest,4.2,No
2020/12/01,07:20,0.179,0.159,0.264,0.248,0.241,0.142,0.086,west-northwest,3.8,No
2020/12/01,07:30,0.177,0.161,0.263,0.248,0.240,0.141,0.087,west,3.0,No
2020/12/01,07:40,0.177,0.160,0.262,0.248,0.240,0.141,0.085,west,3.0,No
2020/12/01,07:50,0.179,0.159,0.263,0.249,0.241,0.142,0.086,west,2.0,No
2020/12/01,08:00,0.178,0.160,0.263,0.247,0.241,0.141,0.086,west,2.2,No
2020/12/01,08:10,0.178,0.160,0.262,0.247,0.241,0.142,0.085,west-northwest,2.4,No
2020/12/01,08:20,0.177,0.160,0.263,0.249,0.242,0.141,0.085,west-northwest,1.8,No
2020/12/01,08:30,0.179,0.159,0.261,0.247,0.242,0.141,0.087,north-northwest,1.8,No
2020/12/01,08:40,0.178,0.161,0.262,0.248,0.241,0.140,0.086,north-northwest,2.4,No
2020/12/01,08:50,0.178,0.160,0.263,0.248,0.242,0.140,0.085,north-northwest,2.3,No
2020/12/01,09:00,0.177,0.160,0.262,0.247,0.241,0.141,0.086,north-northwest,2.5,No
2020/12/01,09:10,0.179,0.159,0.263,0.249,0.242,0.142,0.086,north-northwest,1.5,No
2020/12/01,09:20,0.178,0.160,0.262,0.246,0.242,0.142,0.085,north-northwest,1.2,No
2020/12/01,09:30,0.178,0.159,0.263,0.248,0.240,0.142,0.086,west-northwest,1.0,No
2020/12/01,09:40,0.179,0.159,0.261,0.247,0.242,0.142,0.086,north-northwest,1.8,No
2020/12/01,09:50,0.178,0.159,0.262,0.248,0.242,0.142,0.085,north-northwest,1.5,No
2020/12/01,10:00,0.177,0.159,0.262,0.249,0.243,0.141,0.086,north-northwest,0.8,No
2020/12/01,10:10,0.178,0.160,0.261,0.248,0.239,0.141,0.086,west,3.2,No
2020/12/01,10:20,0.176,0.159,0.261,0.248,0.241,0.142,0.085,west-northwest,4.0,No
2020/12/01,10:30,0.179,0.160,0.261,0.248,0.240,0.141,0.086,northwest,3.3,No
2020/12/01,10:40,0.176,0.159,0.260,0.247,0.241,0.142,0.085,west,2.7,No
2020/12/01,10:50,0.177,0.159,0.261,0.247,0.239,0.141,0.085,northwest,2.7,No
2020/12/01,11:00,0.176,0.159,0.260,0.248,0.241,0.142,0.085,northwest,2.7,No
2020/12/01,11:10,0.177,0.160,0.262,0.247,0.242,0.142,0.086,northwest,2.9,No
2020/12/01,11:20,0.176,0.159,0.262,0.249,0.240,0.142,0.086,north-northwest,3.6,No
2020/12/01,11:30,0.177,0.161,0.263,0.248,0.243,0.142,0.086,northwest,4.7,No
2020/12/01,11:40,0.178,0.160,0.263,0.247,0.240,0.141,0.085,north,3.7,No
2020/12/01,11:50,0.179,0.160,0.263,0.250,0.242,0.141,0.085,north,3.6,No
2020/12/01,12:00,0.178,0.160,0.263,0.248,0.242,0.142,0.086,northeast,3.0,No
2020/12/01,12:10,0.178,0.160,0.262,0.249,0.242,0.142,0.085,northeast,2.7,No
2020/12/01,12:20,0.177,0.160,0.263,0.248,0.241,0.142,0.086,east-northeast,1.1,No
2020/12/01,12:30,0.177,0.160,0.263,0.248,0.241,0.141,0.085,west,1.2,No
2020/12/01,12:40,0.177,0.160,0.262,0.249,0.243,0.141,0.085,west,5.3,No
2020/12/01,12:50,0.178,0.161,0.263,0.247,0.241,0.142,0.085,west,5.8,No
2020/12/01,13:00,0.176,0.159,0.262,0.248,0.242,0.141,0.086,west,6.2,No
2020/12/01,13:10,0.178,0.160,0.263,0.248,0.242,0.142,0.086,west,5.0,No
2020/12/01,13:20,0.176,0.160,0.262,0.248,0.242,0.142,0.085,west-northwest,5.3,No
2020/12/01,13:30,0.177,0.160,0.264,0.247,0.242,0.142,0.085,northwest,4.3,No
2020/12/01,13:40,0.177,0.159,0.261,0.249,0.241,0.142,0.086,northwest,5.2,No
2020/12/01,13:50,0.179,0.160,0.263,0.248,0.242,0.142,0.085,northwest,4.9,No
2020/12/01,14:00,0.178,0.160,0.264,0.249,0.241,0.141,0.085,north-northwest,6.4,No
2020/12/01,14:10,0.179,0.160,0.263,0.248,0.241,0.143,0.085,north-northwest,5.8,No
2020/12/01,14:20,0.179,0.160,0.264,0.249,0.242,0.140,0.086,north-northwest,6.3,No
2020/12/01,14:30,0.178,0.160,0.264,0.248,0.241,0.142,0.085,north-northwest,5.9,No
2020/12/01,14:40,0.179,0.161,0.262,0.249,0.242,0.141,0.086,northwest,5.9,No
2020/12/01,14:50,0.178,0.160,0.263,0.249,0.243,0.143,0.086,northwest,5.0,No
2020/12/01,15:00,0.178,0.160,0.263,0.249,0.242,0.141,0.085,northwest,3.5,No
2020/12/01,15:10,0.179,0.162,0.264,0.250,0.245,0.142,0.085,northwest,4.0,No
2020/12/01,15:20,0.179,0.160,0.264,0.250,0.242,0.141,0.086,north-northwest,4.6,No
2020/12/01,15:30,0.178,0.162,0.263,0.248,0.241,0.142,0.086,northwest,5.7,No
2020/12/01,15:40,0.178,0.162,0.263,0.251,0.243,0.140,0.086,northwest,4.8,No
2020/12/01,15:50,0.179,0.160,0.263,0.250,0.243,0.143,0.085,northwest,5.7,No
2020/12/01,16:00,0.179,0.161,0.265,0.249,0.242,0.142,0.085,northwest,5.1,No
2020/12/01,16:10,0.180,0.161,0.263,0.249,0.242,0.142,0.086,northwest,4.7,No
2020/12/01,16:20,0.178,0.160,0.264,0.250,0.241,0.142,0.086,north-northwest,5.2,No
2020/12/01,16:30,0.178,0.161,0.264,0.248,0.242,0.143,0.086,north-northwest,6.2,No
2020/12/01,16:40,0.179,0.161,0.263,0.249,0.242,0.143,0.086,north-northwest,7.0,No
2020/12/01,16:50,0.177,0.161,0.262,0.250,0.241,0.143,0.086,north-northwest,7.3,No
2020/12/01,17:00,0.178,0.162,0.264,0.248,0.242,0.142,0.085,north-northwest,7.5,No
2020/12/01,17:10,0.179,0.161,0.263,0.250,0.242,0.142,0.086,northwest,7.3,No
2020/12/01,17:20,0.179,0.160,0.264,0.249,0.242,0.142,0.085,northwest,6.7,No
2020/12/01,17:30,0.178,0.161,0.264,0.248,0.242,0.142,0.085,west-northwest,6.9,No
2020/12/01,17:40,0.179,0.163,0.264,0.249,0.241,0.142,0.086,northwest,6.7,No
2020/12/01,17:50,0.179,0.162,0.263,0.249,0.241,0.142,0.086,northwest,8.2,No
2020/12/01,18:00,0.178,0.160,0.265,0.249,0.242,0.142,0.086,northwest,8.5,No
2020/12/01,18:10,0.178,0.161,0.263,0.249,0.241,0.142,0.086,northwest,8.6,No
2020/12/01,18:20,0.180,0.161,0.265,0.250,0.241,0.142,0.086,west-northwest,8.5,No
2020/12/01,18:30,0.179,0.160,0.265,0.250,0.241,0.142,0.086,west-northwest,7.3,No
2020/12/01,18:40,0.179,0.161,0.264,0.249,0.243,0.142,0.087,west-northwest,6.1,No
2020/12/01,18:50,0.178,0.162,0.263,0.250,0.242,0.142,0.086,west-northwest,5.7,No
2020/12/01,19:00,0.179,0.160,0.264,0.249,0.242,0.142,0.087,west-northwest,7.4,No
2020/12/01,19:10,0.179,0.160,0.263,0.249,0.241,0.142,0.086,west-northwest,7.8,No
2020/12/01,19:20,0.178,0.161,0.263,0.249,0.242,0.142,0.085,west-northwest,7.3,No
2020/12/01,19:30,0.179,0.160,0.263,0.249,0.242,0.142,0.086,west-northwest,7.7,No
2020/12/01,19:40,0.179,0.160,0.264,0.249,0.242,0.141,0.086,northwest,5.4,No
2020/12/01,19:50,0.178,0.160,0.264,0.249,0.241,0.141,0.085,west-northwest,5.8,No
2020/12/01,20:00,0.179,0.161,0.262,0.249,0.242,0.142,0.086,west-northwest,5.4,No
2020/12/01,20:10,0.180,0.160,0.264,0.250,0.242,0.142,0.086,west-northwest,5.6,No
2020/12/01,20:20,0.177,0.161,0.266,0.250,0.242,0.142,0.086,northwest,6.2,No
2020/12/01,20:30,0.179,0.160,0.264,0.249,0.243,0.141,0.085,northwest,6.2,No
2020/12/01,20:40,0.179,0.160,0.264,0.250,0.242,0.142,0.087,northwest,6.5,No
2020/12/01,20:50,0.179,0.161,0.263,0.250,0.242,0.142,0.086,northwest,6.5,No
2020/12/01,21:00,0.179,0.160,0.265,0.249,0.243,0.142,0.086,northwest,7.3,No
2020/12/01,21:10,0.178,0.161,0.265,0.248,0.242,0.141,0.086,northwest,7.9,No
2020/12/01,21:20,0.179,0.161,0.264,0.249,0.241,0.142,0.086,northwest,7.4,No
2020/12/01,21:30,0.179,0.160,0.265,0.250,0.242,0.142,0.086,northwest,6.9,No
2020/12/01,21:40,0.180,0.161,0.264,0.250,0.242,0.143,0.085,west-northwest,7.4,No
2020/12/01,21:50,0.178,0.161,0.265,0.250,0.241,0.142,0.086,west-northwest,6.6,No
2020/12/01,22:00,0.179,0.161,0.263,0.250,0.243,0.143,0.085,west,5.8,No
2020/12/01,22:10,0.179,0.161,0.264,0.249,0.243,0.141,0.085,west,5.6,No
2020/12/01,22:20,0.178,0.160,0.265,0.249,0.241,0.141,0.086,west,6.8,No
2020/12/01,22:30,0.179,0.160,0.263,0.249,0.243,0.142,0.086,west-northwest,7.6,No
2020/12/01,22:40,0.179,0.161,0.263,0.248,0.243,0.142,0.087,west-northwest,7.5,No
2020/12/01,22:50,0.178,0.160,0.263,0.249,0.242,0.142,0.086,west-northwest,7.8,No
2020/12/01,23:00,0.179,0.161,0.264,0.249,0.242,0.142,0.086,west-northwest,7.1,No
2020/12/01,23:10,0.178,0.160,0.264,0.249,0.242,0.142,0.086,west-northwest,6.3,No
2020/12/01,23:20,0.179,0.162,0.263,0.250,0.243,0.142,0.086,west-northwest,6.8,No
2020/12/01,23:30,0.179,0.161,0.264,0.250,0.242,0.141,0.086,west-northwest,6.7,No
2020/12/01,23:40,0.178,0.161,0.264,0.249,0.243,0.142,0.087,west-northwest,7.4,No
2020/12/01,23:50,0.179,0.160,0.265,0.250,0.241,0.142,0.086,west-northwest,7.8,No
